Location: Oshawa
(43.9000°N, 78.8670°W)
Time: 18:01:17
(UTC-05:00)

Cosmos 1500 - Visible Passes

Search period start: 20 February 2018 00:00
Search period end: 02 March 2018 00:00
Orbit: 503 x 522 km, 82.5° (Epoch: 20 February)

Date Brightness Start Highest point End Pass type
(mag) Time Alt. Az. Time Alt. Az. Time Alt. Az.
24 Feb 6.4 06:27:54 10° NE 06:29:36 12° ENE 06:31:17 10° E visible
25 Feb 6.9 06:13:12 10° ENE 06:13:23 10° ENE 06:13:35 10° ENE visible
28 Feb 6.1 20:54:47 13° NNW 20:54:47 13° NNW 20:55:15 10° NNW visible
01 Mar 4.6 18:57:51 10° SE 19:00:25 17° E 19:03:00 10° NE visible
01 Mar 4.9 20:32:18 10° SW 20:35:47 33° WNW 20:39:19 10° N visible
